Location: Dappach
(48.9767°N, 9.6998°E)
Time: 21:09:47
(UTC+00:00)

COSMOS 2428 - Pass Details

Date: 22 August 2024
Orbit: 842 x 857 km, 70.9° (Epoch: 09 September)

Event Time Altitude Azimuth Distance (km) Brightness Sun altitude
Exits shadow 23:32:26 68° 314° (NW) 916 2.9 -29.6°
Drops below altitude 10° 23:37:59 10° 25° (NNE) 2,495 6.0 -29.6°
Sets 23:40:28 0° 28° (NNE) 3,437 6.8 -29.6°
